JES3114 SABE-SACO

Flight info

Callsign JES3114
Flight time 1h 4m
Altitude 30000
Route ATOVO4B ATOVO UW5 ASISA ASISA1Z
Aircraft A320/M-SDE3FGHIRWY/LB1

Departure

Time 2026-05-08 00:17
Airport Aeroparque Jorge Newbery (SABE)

Arrival

Time 2026-05-08 01:22
Airport Ingeniero Aeronáutico Ambrosio L.V. Taravella International Airport (SACO)
Time Latitude Longitude Altitude Speed Heading
2026-05-07 23:29 -34.55890 -58.41112 26 ft 0 kts 41°
2026-05-07 23:57 -34.55906 -58.41128 27 ft 4 kts 36°
2026-05-07 23:57 -34.55924 -58.41139 27 ft 4 kts 329°
2026-05-07 23:58 -34.55940 -58.41120 28 ft 4 kts 311°
2026-05-07 23:58 -34.55947 -58.41111 30 ft 0 kts 311°
2026-05-08 00:06 -34.55947 -58.41112 25 ft 1 kts 311°
2026-05-08 00:06 -34.55920 -58.41149 28 ft 11 kts 311°
2026-05-08 00:06 -34.55883 -58.41200 30 ft 7 kts 310°
2026-05-08 00:07 -34.55854 -58.41255 26 ft 9 kts 283°
2026-05-08 00:07 -34.55901 -58.41304 25 ft 10 kts 191°
2026-05-08 00:07 -34.55958 -58.41248 29 ft 12 kts 123°
2026-05-08 00:07 -34.56013 -58.41160 29 ft 14 kts 127°
2026-05-08 00:08 -34.56077 -58.41059 27 ft 16 kts 127°
2026-05-08 00:08 -34.56146 -58.40942 29 ft 18 kts 120°
2026-05-08 00:08 -34.56182 -58.40819 29 ft 14 kts 123°
2026-05-08 00:08 -34.56236 -58.40715 26 ft 16 kts 125°
2026-05-08 00:09 -34.56292 -58.40616 28 ft 12 kts 126°
2026-05-08 00:09 -34.56355 -58.40536 28 ft 14 kts 137°
2026-05-08 00:09 -34.56415 -58.40469 26 ft 5 kts 137°
2026-05-08 00:09 -34.56422 -58.40462 25 ft 0 kts 137°
2026-05-08 00:12 -34.56433 -58.40449 27 ft 6 kts 137°
2026-05-08 00:13 -34.56484 -58.40393 28 ft 12 kts 137°
2026-05-08 00:13 -34.56543 -58.40410 25 ft 10 kts 219°
2026-05-08 00:13 -34.56532 -58.40490 28 ft 12 kts 301°
2026-05-08 00:13 -34.56505 -58.40537 28 ft 0 kts 304°
2026-05-08 00:16 -34.56503 -58.40540 28 ft 3 kts 304°
2026-05-08 00:17 -34.56380 -58.40764 29 ft 67 kts 304°
2026-05-08 00:17 -34.56002 -58.41439 28 ft 123 kts 304°
2026-05-08 00:17 -34.55442 -58.42389 317 ft 142 kts 306°
2026-05-08 00:17 -34.54842 -58.43336 971 ft 141 kts 296°
2026-05-08 00:18 -34.54227 -58.44267 1637 ft 143 kts 307°
2026-05-08 00:18 -34.53419 -58.45057 2030 ft 162 kts 319°
2026-05-08 00:18 -34.52298 -58.45658 2287 ft 192 kts 336°
2026-05-08 00:18 -34.50854 -58.45857 2539 ft 227 kts 357°
2026-05-08 00:19 -34.49224 -58.45380 2901 ft 257 kts 21°
2026-05-08 00:19 -34.47602 -58.44214 3380 ft 282 kts 30°
2026-05-08 00:19 -34.45915 -58.42931 4197 ft 291 kts 30°
2026-05-08 00:19 -34.44178 -58.41623 4550 ft 295 kts 29°
2026-05-08 00:20 -34.42465 -58.40335 4655 ft 293 kts 29°
2026-05-08 00:20 -34.40732 -58.39034 4666 ft 294 kts 29°
2026-05-08 00:20 -34.38930 -58.37866 5065 ft 295 kts 15°
2026-05-08 00:20 -34.36954 -58.37471 6135 ft 284 kts 354°
2026-05-08 00:21 -34.35054 -58.37924 7078 ft 275 kts 332°
2026-05-08 00:21 -34.33481 -58.39170 8026 ft 269 kts 312°
2026-05-08 00:21 -34.32389 -58.40993 8949 ft 269 kts 300°
2026-05-08 00:21 -34.31445 -58.42952 9831 ft 271 kts 301°
2026-05-08 00:22 -34.30461 -58.44986 10185 ft 291 kts 301°
2026-05-08 00:22 -34.29398 -58.47173 10520 ft 310 kts 301°
2026-05-08 00:22 -34.28293 -58.49439 11223 ft 314 kts 301°
2026-05-08 00:22 -34.27177 -58.51725 11990 ft 317 kts 301°
2026-05-08 00:23 -34.26060 -58.54009 12698 ft 321 kts 301°
2026-05-08 00:23 -34.24916 -58.56344 13445 ft 324 kts 301°
2026-05-08 00:23 -34.23762 -58.58699 14079 ft 327 kts 301°
2026-05-08 00:23 -34.22597 -58.61081 14714 ft 330 kts 301°
2026-05-08 00:24 -34.21421 -58.63485 15312 ft 334 kts 301°
2026-05-08 00:24 -34.20236 -58.65908 15932 ft 337 kts 301°
2026-05-08 00:24 -34.19037 -58.68357 16536 ft 340 kts 301°
2026-05-08 00:24 -34.17827 -58.70826 17143 ft 344 kts 302°
2026-05-08 00:25 -34.16597 -58.73326 17764 ft 349 kts 302°
2026-05-08 00:25 -34.15354 -58.75853 18367 ft 350 kts 302°
2026-05-08 00:25 -34.14129 -58.78346 18994 ft 350 kts 302°
2026-05-08 00:25 -34.12888 -58.80870 19662 ft 349 kts 303°
2026-05-08 00:26 -34.11647 -58.83389 20347 ft 349 kts 304°
2026-05-08 00:26 -34.10410 -58.85900 21009 ft 347 kts 305°
2026-05-08 00:26 -34.09174 -58.88401 21634 ft 346 kts 306°
2026-05-08 00:26 -34.07945 -58.90890 22259 ft 346 kts 306°
2026-05-08 00:27 -34.06715 -58.93379 22854 ft 345 kts 307°
2026-05-08 00:27 -34.05486 -58.95867 23422 ft 345 kts 307°
2026-05-08 00:27 -34.04256 -58.98358 23862 ft 347 kts 307°
2026-05-08 00:27 -34.03016 -59.00855 24247 ft 348 kts 307°
2026-05-08 00:28 -34.01779 -59.03337 24638 ft 352 kts 306°
2026-05-08 00:28 -34.00508 -59.05886 24926 ft 358 kts 306°
2026-05-08 00:28 -33.99218 -59.08480 25250 ft 363 kts 305°
2026-05-08 00:28 -33.97918 -59.11102 25639 ft 367 kts 306°
2026-05-08 00:29 -33.96604 -59.13750 26060 ft 369 kts 306°
2026-05-08 00:29 -33.95283 -59.16414 26461 ft 372 kts 306°
2026-05-08 00:29 -33.93953 -59.19093 26848 ft 374 kts 306°
2026-05-08 00:29 -33.92612 -59.21785 27211 ft 376 kts 306°
2026-05-08 00:30 -33.91269 -59.24491 27566 ft 377 kts 306°
2026-05-08 00:30 -33.89908 -59.27211 27898 ft 380 kts 306°
2026-05-08 00:30 -33.88549 -59.29915 28273 ft 383 kts 306°
2026-05-08 00:30 -33.87174 -59.32662 28655 ft 384 kts 304°
2026-05-08 00:31 -33.85783 -59.35449 28879 ft 390 kts 304°
2026-05-08 00:31 -33.84377 -59.38260 29146 ft 395 kts 304°
2026-05-08 00:31 -33.82963 -59.41100 29504 ft 398 kts 304°
2026-05-08 00:31 -33.81535 -59.43964 29709 ft 399 kts 304°
2026-05-08 00:32 -33.80128 -59.46766 29734 ft 384 kts 305°
2026-05-08 00:32 -33.78686 -59.49436 29739 ft 378 kts 307°
2026-05-08 00:32 -33.75660 -59.54571 29738 ft 376 kts 309°
2026-05-08 00:33 -33.72622 -59.59664 29743 ft 375 kts 308°
2026-05-08 00:33 -33.69630 -59.64756 29746 ft 379 kts 305°
2026-05-08 00:34 -33.66613 -59.69981 29742 ft 383 kts 305°
2026-05-08 00:34 -33.63568 -59.75244 29761 ft 385 kts 305°
2026-05-08 00:35 -33.60511 -59.80479 29764 ft 382 kts 305°
2026-05-08 00:35 -33.57464 -59.85682 29786 ft 383 kts 305°
2026-05-08 00:36 -33.54401 -59.90910 29767 ft 382 kts 302°
2026-05-08 00:36 -33.51335 -59.96149 29735 ft 386 kts 302°
2026-05-08 00:37 -33.48243 -60.01412 29747 ft 387 kts 302°
2026-05-08 00:38 -33.43603 -60.09321 29744 ft 388 kts 302°
2026-05-08 00:38 -33.40495 -60.14593 29763 ft 389 kts 302°
2026-05-08 00:39 -33.37350 -60.19909 29753 ft 394 kts 300°
2026-05-08 00:39 -33.34173 -60.25289 29759 ft 396 kts 300°
2026-05-08 00:40 -33.30978 -60.30692 29755 ft 399 kts 300°
2026-05-08 00:40 -33.27759 -60.36125 29772 ft 400 kts 300°
2026-05-08 00:41 -33.24525 -60.41568 29788 ft 404 kts 300°
2026-05-08 00:41 -33.21305 -60.47002 29756 ft 401 kts 297°
2026-05-08 00:42 -33.18080 -60.52421 29771 ft 402 kts 297°
2026-05-08 00:42 -33.14803 -60.57917 29789 ft 409 kts 297°
2026-05-08 00:43 -33.11542 -60.63395 29796 ft 407 kts 298°
2026-05-08 00:43 -33.08255 -60.68892 29786 ft 406 kts 297°
2026-05-08 00:44 -33.04978 -60.74388 29805 ft 409 kts 297°
2026-05-08 00:44 -33.01663 -60.79943 29802 ft 414 kts 297°
2026-05-08 00:45 -32.98312 -60.85505 29790 ft 413 kts 296°
2026-05-08 00:45 -32.94962 -60.91076 29813 ft 417 kts 296°
2026-05-08 00:46 -32.91597 -60.96674 29824 ft 420 kts 296°
2026-05-08 00:46 -32.88202 -61.02326 29834 ft 420 kts 296°
2026-05-08 00:47 -32.84798 -61.07967 29824 ft 421 kts 296°
2026-05-08 00:47 -32.81372 -61.13603 29857 ft 420 kts 296°
2026-05-08 00:48 -32.77965 -61.19214 29864 ft 418 kts 296°
2026-05-08 00:48 -32.74590 -61.24785 29874 ft 418 kts 296°
2026-05-08 00:49 -32.71197 -61.30384 29866 ft 417 kts 296°
2026-05-08 00:49 -32.67810 -61.35957 29850 ft 416 kts 296°
2026-05-08 00:50 -32.64421 -61.41519 29873 ft 416 kts 296°
2026-05-08 00:50 -32.61033 -61.47059 29892 ft 414 kts 296°
2026-05-08 00:51 -32.57645 -61.52610 29897 ft 415 kts 296°
2026-05-08 00:51 -32.54281 -61.58104 29890 ft 413 kts 296°
2026-05-08 00:52 -32.50911 -61.63598 29891 ft 411 kts 296°
2026-05-08 00:52 -32.47555 -61.69080 29902 ft 412 kts 296°
2026-05-08 00:53 -32.44177 -61.74566 29892 ft 412 kts 296°
2026-05-08 00:53 -32.40807 -61.80044 29902 ft 411 kts 296°
2026-05-08 00:54 -32.37431 -61.85515 29892 ft 412 kts 296°
2026-05-08 00:54 -32.34074 -61.90983 29908 ft 408 kts 293°
2026-05-08 00:55 -32.31182 -61.96627 29922 ft 402 kts 292°
2026-05-08 00:55 -32.28316 -62.02281 29924 ft 399 kts 292°
2026-05-08 00:56 -32.25488 -62.07841 29912 ft 392 kts 291°
2026-05-08 00:56 -32.22687 -62.13363 29862 ft 393 kts 291°
2026-05-08 00:57 -32.19876 -62.18876 29875 ft 391 kts 291°
2026-05-08 00:57 -32.17062 -62.24341 29883 ft 392 kts 291°
2026-05-08 00:58 -32.14232 -62.29858 29894 ft 394 kts 291°
2026-05-08 00:58 -32.11394 -62.35412 29915 ft 398 kts 291°
2026-05-08 00:59 -32.08554 -62.40952 29922 ft 393 kts 291°
2026-05-08 00:59 -32.05715 -62.46441 29922 ft 392 kts 291°
2026-05-08 01:00 -32.02871 -62.51947 29922 ft 393 kts 291°
2026-05-08 01:00 -32.00055 -62.57402 29925 ft 393 kts 291°
2026-05-08 01:01 -31.97221 -62.62893 29931 ft 392 kts 290°
2026-05-08 01:01 -31.95808 -62.65635 29819 ft 390 kts 291°
2026-05-08 01:01 -31.94411 -62.68327 29536 ft 382 kts 290°
2026-05-08 01:01 -31.93042 -62.70974 29262 ft 377 kts 290°
2026-05-08 01:02 -31.91684 -62.73598 28971 ft 374 kts 290°
2026-05-08 01:02 -31.90330 -62.76211 28695 ft 373 kts 290°
2026-05-08 01:02 -31.88980 -62.78808 28401 ft 372 kts 290°
2026-05-08 01:02 -31.87630 -62.81396 28129 ft 370 kts 290°
2026-05-08 01:03 -31.86290 -62.83975 27842 ft 368 kts 290°
2026-05-08 01:03 -31.84957 -62.86539 27579 ft 367 kts 290°
2026-05-08 01:03 -31.83631 -62.89091 27330 ft 365 kts 290°
2026-05-08 01:03 -31.82306 -62.91634 27069 ft 364 kts 290°
2026-05-08 01:04 -31.81004 -62.94136 26818 ft 363 kts 289°
2026-05-08 01:04 -31.79688 -62.96664 26594 ft 360 kts 289°
2026-05-08 01:04 -31.78390 -62.99146 26301 ft 354 kts 289°
2026-05-08 01:04 -31.77105 -63.01603 25924 ft 351 kts 289°
2026-05-08 01:05 -31.75833 -63.04038 25541 ft 349 kts 289°
2026-05-08 01:05 -31.74567 -63.06456 25167 ft 346 kts 289°
2026-05-08 01:05 -31.73311 -63.08853 24774 ft 344 kts 289°
2026-05-08 01:05 -31.72067 -63.11231 24381 ft 340 kts 289°
2026-05-08 01:06 -31.70831 -63.13591 23996 ft 338 kts 289°
2026-05-08 01:06 -31.69605 -63.15931 23625 ft 335 kts 289°
2026-05-08 01:06 -31.68388 -63.18256 23175 ft 333 kts 289°
2026-05-08 01:06 -31.67190 -63.20540 22687 ft 333 kts 289°
2026-05-08 01:07 -31.65842 -63.22783 22223 ft 339 kts 295°
2026-05-08 01:07 -31.64398 -63.24972 21743 ft 339 kts 296°
2026-05-08 01:07 -31.62957 -63.27155 21260 ft 338 kts 296°
2026-05-08 01:07 -31.61518 -63.29333 20792 ft 338 kts 296°
2026-05-08 01:08 -31.60078 -63.31508 20308 ft 338 kts 296°
2026-05-08 01:08 -31.58635 -63.33686 19824 ft 338 kts 296°
2026-05-08 01:08 -31.57194 -63.35864 19340 ft 338 kts 296°
2026-05-08 01:08 -31.55752 -63.38044 18855 ft 339 kts 296°
2026-05-08 01:09 -31.54307 -63.40227 18358 ft 339 kts 296°
2026-05-08 01:09 -31.52859 -63.42412 17831 ft 339 kts 297°
2026-05-08 01:09 -31.51412 -63.44592 17330 ft 338 kts 297°
2026-05-08 01:09 -31.49993 -63.46725 16871 ft 337 kts 297°
2026-05-08 01:10 -31.48555 -63.48885 16392 ft 335 kts 297°
2026-05-08 01:10 -31.47127 -63.51032 15921 ft 334 kts 298°
2026-05-08 01:10 -31.45704 -63.53180 15453 ft 334 kts 298°
2026-05-08 01:10 -31.44279 -63.55329 14977 ft 334 kts 298°
2026-05-08 01:11 -31.42855 -63.57473 14518 ft 334 kts 299°
2026-05-08 01:11 -31.41429 -63.59616 14053 ft 334 kts 299°
2026-05-08 01:11 -31.40000 -63.61760 13567 ft 334 kts 300°
2026-05-08 01:11 -31.38576 -63.63897 13090 ft 332 kts 300°
2026-05-08 01:12 -31.37157 -63.66026 12627 ft 330 kts 300°
2026-05-08 01:12 -31.35772 -63.68105 12164 ft 328 kts 300°
2026-05-08 01:12 -31.34375 -63.70199 11732 ft 325 kts 300°
2026-05-08 01:12 -31.32992 -63.72267 11470 ft 318 kts 300°
2026-05-08 01:13 -31.31652 -63.74263 11314 ft 307 kts 300°
2026-05-08 01:13 -31.30347 -63.76210 11036 ft 303 kts 300°
2026-05-08 01:13 -31.29063 -63.78135 10545 ft 298 kts 299°
2026-05-08 01:13 -31.27796 -63.80041 9930 ft 297 kts 299°
2026-05-08 01:14 -31.26539 -63.81933 9302 ft 293 kts 300°
2026-05-08 01:14 -31.25293 -63.83801 8857 ft 291 kts 300°
2026-05-08 01:14 -31.24045 -63.85674 8497 ft 292 kts 300°
2026-05-08 01:14 -31.22828 -63.87492 8330 ft 284 kts 300°
2026-05-08 01:15 -31.21626 -63.89278 8198 ft 275 kts 300°
2026-05-08 01:15 -31.20467 -63.91004 8071 ft 266 kts 299°
2026-05-08 01:15 -31.19461 -63.92745 7928 ft 253 kts 294°
2026-05-08 01:15 -31.18526 -63.94475 7606 ft 252 kts 294°
2026-05-08 01:16 -31.17605 -63.96218 7170 ft 255 kts 294°
2026-05-08 01:16 -31.16667 -63.98013 6722 ft 259 kts 294°
2026-05-08 01:16 -31.15796 -63.99812 6434 ft 249 kts 282°
2026-05-08 01:16 -31.15733 -64.01699 6117 ft 226 kts 245°
2026-05-08 01:17 -31.16605 -64.03148 5708 ft 216 kts 223°
2026-05-08 01:17 -31.17640 -64.04326 5342 ft 204 kts 221°
2026-05-08 01:17 -31.18636 -64.05422 5057 ft 189 kts 221°
2026-05-08 01:17 -31.19550 -64.06425 4800 ft 170 kts 221°
2026-05-08 01:18 -31.20349 -64.07304 4548 ft 149 kts 220°
2026-05-08 01:18 -31.21078 -64.08113 4332 ft 142 kts 221°
2026-05-08 01:18 -31.21787 -64.08904 4131 ft 140 kts 221°
2026-05-08 01:18 -31.22487 -64.09684 3938 ft 139 kts 221°
2026-05-08 01:19 -31.23181 -64.10461 3752 ft 138 kts 222°
2026-05-08 01:19 -31.23879 -64.11242 3560 ft 140 kts 222°
2026-05-08 01:19 -31.24577 -64.12023 3368 ft 139 kts 221°
2026-05-08 01:19 -31.25273 -64.12805 3173 ft 138 kts 221°
2026-05-08 01:20 -31.25965 -64.13579 2963 ft 140 kts 223°
2026-05-08 01:20 -31.26670 -64.14374 2786 ft 141 kts 225°
2026-05-08 01:20 -31.27381 -64.15162 2634 ft 141 kts 223°
2026-05-08 01:20 -31.28096 -64.15941 2479 ft 141 kts 227°
2026-05-08 01:21 -31.28796 -64.16740 2351 ft 141 kts 227°
2026-05-08 01:21 -31.29487 -64.17556 2045 ft 141 kts 227°
2026-05-08 01:21 -31.30195 -64.18340 1832 ft 140 kts 227°
2026-05-08 01:21 -31.30896 -64.19140 1664 ft 142 kts 227°
2026-05-08 01:22 -31.31552 -64.19884 1618 ft 114 kts 224°
2026-05-08 01:22 -31.31931 -64.20318 1624 ft 54 kts 225°
2026-05-08 01:22 -31.32167 -64.20579 1615 ft 41 kts 223°
2026-05-08 01:22 -31.32245 -64.20667 1617 ft 13 kts 224°
2026-05-08 01:23 -31.32260 -64.20684 1612 ft 2 kts 223°
2026-05-08 01:23 -31.32310 -64.20740 1618 ft 14 kts 224°
2026-05-08 01:23 -31.32384 -64.20826 1612 ft 15 kts 227°
2026-05-08 01:23 -31.32439 -64.20928 1619 ft 16 kts 273°
2026-05-08 01:24 -31.32362 -64.21029 1619 ft 17 kts 352°
2026-05-08 01:24 -31.32223 -64.21021 1615 ft 23 kts 358°
2026-05-08 01:24 -31.32046 -64.21025 1619 ft 27 kts 359°
2026-05-08 01:24 -31.31858 -64.21029 1615 ft 27 kts
2026-05-08 01:25 -31.31739 -64.21079 1615 ft 11 kts 307°
2026-05-08 01:25 -31.31669 -64.21102 1618 ft 12 kts
2026-05-08 01:25 -31.31615 -64.21100 1622 ft 4 kts 359°
2026-05-08 01:25 -31.31608 -64.21112 1613 ft 1 kts 283°
2026-05-08 01:26 -31.31612 -64.21141 1613 ft 4 kts 271°
2026-05-08 01:26 -31.31612 -64.21172 1618 ft 2 kts 268°
2026-05-08 01:26 -31.31612 -64.21173 1613 ft 0 kts 268°